Hourly Weather Snigirevka

Today, 5 August, Wednesday

Time Temperature Precipitation Wind Pressure Humidity
00:00 +22°C° 0 mm 1 mps 756 mmHg 54%
01:00 +22°C° 0 mm 1 mps 756 mmHg 54%
02:00 +22°C° 0 mm 1 mps 756 mmHg 54%
03:00 +21°C° 0 mm 1 mps 756 mmHg 54%
04:00 +20°C° 0 mm 2 mps 757 mmHg 55%
05:00 +20°C° 0 mm 2 mps 757 mmHg 55%
06:00 +22°C° 0 mm 3 mps 757 mmHg 50%
07:00 +26°C° 0 mm 3 mps 757 mmHg 45%
08:00 +28°C° 0 mm 4 mps 757 mmHg 40%
09:00 +30°C° 0 mm 4 mps 757 mmHg 35%
10:00 +32°C° 0 mm 5 mps 757 mmHg 31%
11:00 +34°C° 0 mm 5 mps 757 mmHg 27%
12:00 +34°C° 0 mm 5 mps 757 mmHg 26%
13:00 +34°C° 0 mm 5 mps 757 mmHg 25%
14:00 +35°C° 0 mm 5 mps 756 mmHg 24%
15:00 +34°C° 0 mm 5 mps 756 mmHg 25%
16:00 +34°C° 0 mm 5 mps 756 mmHg 25%
17:00 +33°C° 0 mm 5 mps 756 mmHg 26%
18:00 +30°C° 0 mm 5 mps 756 mmHg 30%
19:00 +28°C° 0 mm 4 mps 757 mmHg 34%
20:00 +26°C° 0 mm 3 mps 757 mmHg 38%
21:00 +25°C° 0 mm 3 mps 757 mmHg 41%
22:00 +25°C° 0 mm 3 mps 757 mmHg 45%
23:00 +24°C° 0 mm 3 mps 757 mmHg 48%

Tomorrow, 6 August, Thursday

Time Temperature Precipitation Wind Pressure Humidity
00:00 +22°C° 0 mm 3 mps 758 mmHg 52%
01:00 +22°C° 0 mm 3 mps 758 mmHg 56%
02:00 +21°C° 0 mm 3 mps 758 mmHg 60%
03:00 +21°C° 0 mm 3 mps 758 mmHg 62%
04:00 +20°C° 0 mm 4 mps 758 mmHg 64%
05:00 +20°C° 0 mm 4 mps 758 mmHg 66%
06:00 +22°C° 0 mm 4 mps 758 mmHg 60%
07:00 +25°C° 0 mm 5 mps 758 mmHg 54%
08:00 +27°C° 0 mm 5 mps 759 mmHg 48%
09:00 +29°C° 0 mm 5 mps 759 mmHg 44%
10:00 +32°C° 0 mm 5 mps 759 mmHg 39%
11:00 +33°C° 0 mm 5 mps 759 mmHg 35%
12:00 +34°C° 0 mm 6 mps 759 mmHg 34%
13:00 +35°C° 0 mm 6 mps 758 mmHg 33%
14:00 +36°C° 0 mm 6 mps 758 mmHg 32%
15:00 +35°C° 0 mm 6 mps 758 mmHg 33%
16:00 +35°C° 0 mm 5 mps 758 mmHg 33%
17:00 +35°C° 0 mm 5 mps 758 mmHg 33%
18:00 +33°C° 0 mm 5 mps 758 mmHg 37%
19:00 +30°C° 0 mm 4 mps 758 mmHg 41%
20:00 +29°C° 0 mm 3 mps 758 mmHg 45%
21:00 +28°C° 0 mm 3 mps 759 mmHg 48%
22:00 +27°C° 0 mm 4 mps 759 mmHg 50%
23:00 +27°C° 0 mm 4 mps 759 mmHg 52%

Day after tomorrow, 7 August, Friday

Time Temperature Precipitation Wind Pressure Humidity
00:00 +26°C° 0 mm 4 mps 759 mmHg 56%
01:00 +26°C° 0 mm 5 mps 759 mmHg 59%
02:00 +25°C° 0 mm 5 mps 759 mmHg 62%
03:00 +25°C° 0 mm 5 mps 759 mmHg 64%
04:00 +25°C° 0 mm 5 mps 759 mmHg 67%
05:00 +23°C° 0 mm 5 mps 759 mmHg 69%
06:00 +26°C° 0 mm 5 mps 759 mmHg 64%
07:00 +27°C° 0 mm 5 mps 760 mmHg 59%
08:00 +29°C° 0 mm 6 mps 760 mmHg 53%
09:00 +32°C° 0 mm 6 mps 760 mmHg 48%
10:00 +33°C° 0 mm 5 mps 760 mmHg 42%
11:00 +35°C° 0 mm 5 mps 760 mmHg 37%
12:00 +36°C° 0 mm 5 mps 759 mmHg 34%
13:00 +36°C° 0 mm 5 mps 759 mmHg 32%
14:00 +37°C° 0 mm 5 mps 758 mmHg 29%
15:00 +37°C° 0 mm 5 mps 758 mmHg 29%
16:00 +36°C° 0 mm 5 mps 758 mmHg 29%
17:00 +36°C° 0 mm 5 mps 758 mmHg 29%
18:00 +34°C° 0 mm 5 mps 758 mmHg 31%
19:00 +32°C° 0 mm 4 mps 758 mmHg 33%
20:00 +29°C° 0 mm 4 mps 758 mmHg 36%
21:00 +28°C° 0 mm 4 mps 758 mmHg 41%
22:00 +27°C° 0 mm 5 mps 758 mmHg 46%
23:00 +26°C° 0 mm 5 mps 758 mmHg 52%

8 August, Saturday

Time Temperature Precipitation Wind Pressure Humidity
00:00 +26°C° 0 mm 5 mps 758 mmHg 57%
01:00 +25°C° 0 mm 5 mps 758 mmHg 62%
02:00 +23°C° 0 mm 5 mps 758 mmHg 67%
03:00 +23°C° 0 mm 5 mps 758 mmHg 71%
04:00 +23°C° 0 mm 5 mps 758 mmHg 76%
05:00 +22°C° 0 mm 5 mps 758 mmHg 80%
06:00 +25°C° 0 mm 5 mps 758 mmHg 73%
07:00 +26°C° 0 mm 6 mps 758 mmHg 67%
08:00 +27°C° 0 mm 6 mps 758 mmHg 61%
09:00 +29°C° 0 mm 6 mps 758 mmHg 55%
10:00 +32°C° 0 mm 6 mps 758 mmHg 49%
11:00 +33°C° 0 mm 6 mps 757 mmHg 43%
12:00 +33°C° 0 mm 6 mps 757 mmHg 42%
13:00 +33°C° 0 mm 6 mps 757 mmHg 40%
14:00 +33°C° 0 mm 6 mps 756 mmHg 39%
15:00 +33°C° 0 mm 6 mps 756 mmHg 37%
16:00 +33°C° 0 mm 6 mps 756 mmHg 35%
17:00 +33°C° 0 mm 6 mps 756 mmHg 33%
18:00 +30°C° 0 mm 6 mps 756 mmHg 36%
19:00 +28°C° 0 mm 5 mps 756 mmHg 39%
20:00 +27°C° 0 mm 4 mps 756 mmHg 43%
21:00 +26°C° 0 mm 4 mps 756 mmHg 46%
22:00 +25°C° 0 mm 5 mps 756 mmHg 50%
23:00 +23°C° 0 mm 5 mps 756 mmHg 54%

9 August, Sunday

Time Temperature Precipitation Wind Pressure Humidity
00:00 +23°C° 0 mm 5 mps 756 mmHg 57%
01:00 +22°C° 0 mm 5 mps 756 mmHg 60%
02:00 +21°C° 0 mm 5 mps 756 mmHg 63%
03:00 +21°C° 0 mm 5 mps 756 mmHg 64%
04:00 +21°C° 0 mm 5 mps 756 mmHg 65%
05:00 +20°C° 0 mm 5 mps 756 mmHg 66%
06:00 +22°C° 0 mm 6 mps 756 mmHg 61%
07:00 +23°C° 0 mm 6 mps 756 mmHg 56%
08:00 +26°C° 0 mm 6 mps 756 mmHg 51%
09:00 +27°C° 0 mm 6 mps 756 mmHg 45%
10:00 +29°C° 0 mm 6 mps 756 mmHg 39%
11:00 +30°C° 0 mm 7 mps 756 mmHg 33%
12:00 +32°C° 0 mm 6 mps 755 mmHg 31%
13:00 +32°C° 0 mm 6 mps 755 mmHg 29%
14:00 +33°C° 0 mm 6 mps 755 mmHg 27%
15:00 +32°C° 0 mm 6 mps 755 mmHg 27%
16:00 +32°C° 0 mm 6 mps 755 mmHg 27%
17:00 +32°C° 0 mm 6 mps 754 mmHg 27%
18:00 +29°C° 0 mm 5 mps 755 mmHg 31%
19:00 +27°C° 0 mm 4 mps 755 mmHg 34%
20:00 +25°C° 0 mm 4 mps 755 mmHg 38%
21:00 +23°C° 0 mm 4 mps 755 mmHg 41%
22:00 +23°C° 0 mm 4 mps 755 mmHg 44%
23:00 +22°C° 0 mm 4 mps 755 mmHg 47%

10 August, Monday

Time Temperature Precipitation Wind Pressure Humidity
00:00 +21°C° 0 mm 4 mps 755 mmHg 49%
01:00 +21°C° 0 mm 4 mps 755 mmHg 51%
02:00 +20°C° 0 mm 4 mps 756 mmHg 53%
03:00 +20°C° 0 mm 4 mps 756 mmHg 55%
04:00 +19°C° 0 mm 4 mps 756 mmHg 57%
05:00 +19°C° 0 mm 4 mps 756 mmHg 59%
06:00 +21°C° 0 mm 4 mps 756 mmHg 54%
07:00 +23°C° 0 mm 5 mps 756 mmHg 48%
08:00 +26°C° 0 mm 5 mps 756 mmHg 42%
09:00 +28°C° 0 mm 5 mps 756 mmHg 38%
10:00 +29°C° 0 mm 5 mps 756 mmHg 34%
11:00 +30°C° 0 mm 5 mps 756 mmHg 29%
12:00 +32°C° 0 mm 5 mps 756 mmHg 28%
13:00 +32°C° 0 mm 5 mps 756 mmHg 26%
14:00 +33°C° 0 mm 4 mps 756 mmHg 24%
15:00 +33°C° 0 mm 4 mps 755 mmHg 26%
16:00 +32°C° 0 mm 4 mps 755 mmHg 27%
17:00 +32°C° 0 mm 4 mps 755 mmHg 28%
18:00 +29°C° 0 mm 4 mps 755 mmHg 32%
19:00 +28°C° 0 mm 3 mps 756 mmHg 36%
20:00 +26°C° 0 mm 2 mps 756 mmHg 40%
21:00 +26°C° 0 mm 3 mps 756 mmHg 43%
22:00 +26°C° 0 mm 3 mps 756 mmHg 45%
23:00 +26°C° 0 mm 4 mps 756 mmHg 47%
Show more